RESOURCESAT-2A (41877 NORAD) Tracking and Keplerian Element Data

This shows tracking and keplerian element data for the satellite.

Feedback or suggestion? Click here.




ElementValue
Catalog41877
NameRESOURCESAT-2A
Epoch Orbit10053
Epoch Day318.73920688
Epoch Year2018
RAAN31.0042
Inclination98.6595
Eccentricity7.64E-05
Argument of Perigee108.6393
Mean Anonmoly251.488
Mean Motion14.21651705
Decay Rate-1.76E-06
L11 41877U 16074A 18318.73920688 -.00000176 00000-0 -60268-4 0 9991
L22 41877 98.6595 31.0042 0000764 108.6393 251.4880 14.21651705100537

Live tracking and technical data element details for RESOURCESAT-2A (NORAD 41877). RESOURCESAT-2A can be tracked NOW for your location showing map with azimuth and elevation plus other details from your city location.

Track the satellite on the map from your city or location and see movement details for azimuth, elevation, latitude, longitude, range, height, and movement on the map or in text.







IsCatalogInMostPopularTable: catalog: 41877, numindb: 112
Update: records affected: 1



GetName: 41877 RESOURCESAT-2A

Hit Count: updated at: Fri, 16 Nov 2018 05:57:21 GMT